Hilo, HI

10:29 AM HST on February 11, 2016 (GMT -1000)
Hilo International

Weather History for PHTO - March, 2015

Change the Weather History Date:

Monday, March 9, 2015

  Actual Average Record
Temperature  
Mean Temperature 69 °F 72 °F  
Max Temperature 71 °F 79 °F 87 °F (1986)
Min Temperature 66 °F 64 °F 60 °F (1971)
Degree Days  
Heating Degree Days 0 0  
Month to date heating degree days 0 0  
Since 1 July heating degree days 0 0  
Cooling Degree Days 4 7  
Month to date cooling degree days 54 60  
Year to date cooling degree days 580 430  
Growing Degree Days 18 (Base 50)    
Moisture  
Dew Point 64 °F    
Average Humidity 86    
Maximum Humidity 93    
Minimum Humidity 78    
Precipitation  
Precipitation 0.25 in 0.43 in 8.53 in (1991)
Month to date precipitation 7.53 3.69  
Year to date precipitation 15.62 22.51  
Snow  
Snow 0.00 in - - ()
Month to date snowfall 0.0  
Since 1 July snowfall 0.0  
Snow Depth 0.00 in    
Sea Level Pressure  
Sea Level Pressure 29.93 in    
Wind  
Wind Speed 7 mph (NNW)    
Max Wind Speed 15 mph    
Max Gust Speed 19 mph    
Visibility 9 miles    
Events Rain    
T = Trace of Precipitation, MM = Missing Value Source: NWS Daily Summary

Daily Weather History Graph

Daily Weather History Graph

Search for Another Location

Airport or City:

Trip Planner

Search our weather history database for the weather conditions in past years. The results will help you decide how hot, cold, wet, or windy it might be!

Date:

Astronomy

Mar. 09, 2015 Rise Set
Actual Time 6:33 AM HST 6:28 PM HST
Civil Twilight 6:11 AM HST 6:50 PM HST
Nautical Twilight 5:46 AM HST 7:15 PM HST
Astronomical Twilight 5:20 AM HST 7:41 PM HST
Moon 9:59 PM HST (3/9) 9:01 AM HST (3/9)
Length of Visible Light 12h 38m
Length of Day
11h 54m
Waning Gibbous, 85% of the Moon is Illuminated
Mar 9
Waning Gibbous
Mar 13
Last Quarter
Mar 19
New
Mar 26
First Quarter
Apr 4
Full

Hourly Weather History & Observations

Time (HST) Temp. Dew Point Humidity Pressure Visibility Wind Dir Wind Speed Gust Speed Precip Events Conditions
12:12 AM 66.9 °F 64.9 °F 93% 29.93 in 10.0 mi North 6.9 mph - 0.05 in Rain Rain
12:28 AM 66.9 °F 64.9 °F 93% 29.93 in 6.0 mi North 8.1 mph - 0.07 in Rain Rain
12:53 AM 66.9 °F 64.0 °F 90% 29.92 in 6.0 mi North 9.2 mph - 0.11 in Rain Light Rain
1:53 AM 66.9 °F 64.0 °F 90% 29.91 in 10.0 mi NW 8.1 mph - 0.03 in Rain Light Rain
2:05 AM 66.9 °F 64.0 °F 90% 29.91 in 6.0 mi West 4.6 mph - 0.00 in Rain Light Rain
2:32 AM 66.0 °F 64.0 °F 93% 29.89 in 10.0 mi SW 3.5 mph - 0.00 in Rain Light Rain
2:53 AM 66.0 °F 64.0 °F 93% 29.89 in 10.0 mi WSW 3.5 mph - 0.00 in   Overcast
3:18 AM 66.0 °F 64.0 °F 93% 29.89 in 10.0 mi Calm Calm - 0.01 in Rain Light Rain
3:53 AM 66.0 °F 64.0 °F 93% 29.90 in 6.0 mi West 5.8 mph - 0.01 in Rain Light Rain
4:30 AM 66.0 °F 64.0 °F 93% 29.90 in 10.0 mi NW 3.5 mph - 0.01 in Rain Light Rain
4:50 AM 66.2 °F 64.4 °F 94% 29.90 in 10.0 mi SW 3.5 mph - 0.01 in Rain Light Rain
4:53 AM 66.0 °F 64.0 °F 93% 29.90 in 5.0 mi WSW 3.5 mph - 0.02 in Rain Light Rain
5:49 AM 66.2 °F 64.4 °F 94% 29.91 in 5.0 mi NNW 10.4 mph - 0.02 in Rain Light Rain
5:53 AM 66.9 °F 64.0 °F 90% 29.91 in 5.0 mi NW 4.6 mph - 0.02 in Rain Light Rain
6:18 AM 66.9 °F 64.0 °F 90% 29.92 in 5.0 mi NNW 11.5 mph - 0.01 in Rain Light Rain
6:53 AM 66.9 °F 64.0 °F 90% 29.94 in 10.0 mi NW 8.1 mph - 0.03 in   Overcast
7:53 AM 66.9 °F 64.0 °F 90% 29.96 in 10.0 mi WNW 4.6 mph - 0.00 in   Overcast
8:02 AM 68.0 °F 64.0 °F 87% 29.96 in 10.0 mi NW 4.6 mph - N/A   Overcast
8:53 AM 69.1 °F 63.0 °F 81% 29.96 in 10.0 mi NNW 11.5 mph - 0.00 in   Overcast
9:53 AM 70.0 °F 63.0 °F 78% 29.98 in 10.0 mi North 6.9 mph - 0.00 in Rain Light Rain
10:36 AM 69.1 °F 64.0 °F 84% 29.98 in 10.0 mi NNW 5.8 mph - 0.01 in Rain Light Rain
10:53 AM 69.1 °F 64.0 °F 84% 29.99 in 10.0 mi WNW 4.6 mph - 0.01 in Rain Light Rain
11:34 AM 70.0 °F 64.0 °F 81% 29.98 in 10.0 mi NW 4.6 mph - 0.00 in Rain Light Rain
11:53 AM 70.0 °F 63.0 °F 78% 29.96 in 10.0 mi North 5.8 mph - 0.00 in Rain Light Rain
12:53 PM 71.1 °F 64.0 °F 78% 29.92 in 10.0 mi North 6.9 mph - 0.01 in Rain Light Rain
1:41 PM 71.1 °F 64.0 °F 78% 29.91 in 10.0 mi North 10.4 mph - 0.00 in   Overcast
1:53 PM 71.1 °F 64.9 °F 81% 29.89 in 10.0 mi NNE 10.4 mph - 0.00 in Rain Light Rain
2:06 PM 70.0 °F 66.0 °F 87% 29.90 in 10.0 mi NNE 12.7 mph - 0.00 in   Overcast
2:53 PM 69.1 °F 64.0 °F 84% 29.92 in 10.0 mi North 11.5 mph - 0.00 in Rain Light Rain
3:02 PM 69.1 °F 64.0 °F 84% 29.92 in 10.0 mi North 9.2 mph - 0.00 in Rain Light Rain
3:37 PM 70.0 °F 66.0 °F 87% 29.90 in 10.0 mi NNE 11.5 mph - 0.01 in Rain Light Rain
3:48 PM 69.8 °F 66.2 °F 88% 29.90 in 10.0 mi North 12.7 mph - 0.01 in Rain Light Rain
3:53 PM 69.1 °F 64.9 °F 87% 29.89 in 10.0 mi North 13.8 mph - 0.01 in Rain Light Rain
4:36 PM 69.1 °F 64.9 °F 87% 29.90 in 10.0 mi North 11.5 mph - 0.00 in   Overcast
4:53 PM 68.0 °F 66.0 °F 93% 29.91 in 2.5 mi NNW 13.8 mph - 0.01 in Rain Rain
5:00 PM 68.0 °F 64.9 °F 90% 29.93 in 3.0 mi North 13.8 mph - 0.01 in Rain Light Rain
5:12 PM 68.0 °F 64.9 °F 90% 29.93 in 3.0 mi NNW 15.0 mph - 0.02 in Rain Light Rain
5:33 PM 68.0 °F 64.0 °F 87% 29.93 in 3.0 mi North 9.2 mph - 0.02 in   Overcast
5:53 PM 66.9 °F 64.9 °F 93% 29.92 in 3.0 mi North 9.2 mph - 0.02 in Rain Light Rain
6:08 PM 66.9 °F 64.9 °F 93% 29.93 in 10.0 mi North 9.2 mph - 0.00 in Rain Light Rain
6:15 PM 66.9 °F 64.9 °F 93% 29.93 in 10.0 mi North 9.2 mph - 0.00 in Rain Light Rain
6:25 PM 66.9 °F 64.9 °F 93% 29.94 in 10.0 mi NNW 10.4 mph - 0.00 in   Overcast
6:41 PM 66.9 °F 64.0 °F 90% 29.93 in 10.0 mi North 10.4 mph - 0.00 in   Overcast
6:53 PM 66.9 °F 64.0 °F 90% 29.95 in 10.0 mi NNW 12.7 mph - 0.00 in   Overcast
7:32 PM 66.9 °F 64.0 °F 90% 29.95 in 10.0 mi North 8.1 mph - N/A   Overcast
7:53 PM 66.9 °F 64.0 °F 90% 29.95 in 10.0 mi North 6.9 mph - N/A   Overcast
8:43 PM 68.0 °F 63.0 °F 84% 29.96 in 10.0 mi North 9.2 mph - N/A   Mostly Cloudy
8:53 PM 68.0 °F 63.0 °F 84% 29.96 in 10.0 mi North 10.4 mph - N/A   Mostly Cloudy
9:24 PM 68.0 °F 64.0 °F 87% 29.96 in 10.0 mi North 10.4 mph - N/A   Mostly Cloudy
9:40 PM 68.0 °F 64.0 °F 87% 29.95 in 10.0 mi North 8.1 mph - N/A   Overcast
9:53 PM 68.0 °F 64.0 °F 87% 29.95 in 10.0 mi North 11.5 mph - N/A   Overcast
10:53 PM 66.9 °F 64.0 °F 90% 29.96 in 10.0 mi North 10.4 mph - N/A   Overcast
11:02 PM 66.9 °F 64.0 °F 90% 29.96 in 10.0 mi NNW 10.4 mph - 0.00 in Rain Light Rain
11:53 PM 68.0 °F 63.0 °F 84% 29.95 in 10.0 mi North 12.7 mph - 0.00 in   Overcast